This demonstration page uses our WeatherBlox Daily Observations layout. Learn more.

39.92423, -83.80882

Hourly Observations for May 25, 2017

Temp ( °F °C ) Dew Point ( °F °C ) Humidity (%) Winds ( mph kmh ) Pressure ( in mb ) Visibility ( mi km ) Precip ( " mm )
12:39 am 00:39 Cloudy 59 15 57 14 94 94 SSE 3 6 29.38 995 10 16.0934 0.01 0.254
12:56 am 00:56 Cloudy 59 15 58 14.4 96 96 S 5 7 29.36 994 10 16.0934 0.01 0.254
1:05 am 01:05 Cloudy 61 16 57 14 88 88 SSW 5 7 29.38 995 10 16.0934 0 0
1:56 am 01:56 Cloudy 59 15 57 13.9 93 93 SSW 6 9 29.35 994 10 16.0934 0 0
2:26 am 02:26 Cloudy 59 15 57 14 94 94 SSW 7 11 29.38 995 10 16.0934 0 0
2:39 am 02:39 Cloudy with Light Rain 59 15 57 14 94 94 S 3 6 29.38 995 9 14.48406 0 0.0254
2:56 am 02:56 Cloudy with Light Rain 58 14.4 57 13.9 97 97 SSW 5 7 29.36 994 10 16.0934 0.01 0.254
3:56 am 03:56 Cloudy 59 15 58 14.4 96 96 SSW 3 6 29.36 994 10 16.0934 0.02 0.508
4:05 am 04:05 Cloudy 59 15 57 14 94 94 S 5 7 29.38 995 10 16.0934 0.01 0.254
4:16 am 04:16 Cloudy 59 15 57 14 94 94 SSW 5 7 29.38 995 9 14.48406 0.01 0.254
4:42 am 04:42 Cloudy 59 15 57 14 94 94 SW 7 11 29.38 995 10 16.0934 0.01 0.254
4:56 am 04:56 Cloudy 59 15 58 14.4 96 96 SW 7 11 29.36 994 8 12.87472 0.01 0.254
5:34 am 05:34 Cloudy 57 14 57 14 100 100 SSW 6 9 29.38 995 9 14.48406 0 0
5:56 am 05:56 Mostly Cloudy 58 14.4 57 13.9 97 97 SW 7 11 29.36 994 10 16.0934 0 0
6:26 am 06:26 Cloudy 57 14 57 14 100 100 SW 7 11 29.38 995 10 16.0934 0 0
6:35 am 06:35 Cloudy 57 14 57 14 100 100 S 6 9 29.38 995 10 16.0934 0 0
6:56 am 06:56 Cloudy with Light Rain 58 14.4 57 13.9 97 97 SSW 3 6 29.39 995 8 12.87472 0 0.0254
7:14 am 07:14 Cloudy 57 14 57 14 100 100 S 5 7 29.41 996 8 12.87472 0 0.0254
7:52 am 07:52 Cloudy 59 15 57 14 94 94 S 5 7 29.41 996 10 16.0934 0 0.0254
7:56 am 07:56 Cloudy 59 15 57 13.9 93 93 S 5 7 29.39 995 10 16.0934 0 0.0254
8:06 am 08:06 Cloudy 59 15 57 14 94 94 S 5 7 29.41 996 10 16.0934 0 0
8:56 am 08:56 Cloudy 60 15.6 57 13.9 90 90 S 6 9 29.4 996 10 16.0934 0 0
9:26 am 09:26 Cloudy with Light Rain 61 16 57 14 88 88 SW 6 9 29.41 996 10 16.0934 0 0.0254
9:35 am 09:35 Cloudy with Light Rain 59 15 57 14 94 94 SW 6 9 29.44 997 9 14.48406 0 0.0254
9:49 am 09:49 Cloudy with Light Rain 61 16 57 14 88 88 W 6 9 29.44 997 10 16.0934 0 0.0254
9:56 am 09:56 Cloudy with Light Rain 60 15.6 58 14.4 93 93 W 5 7 29.42 996 10 16.0934 0 0.0254
10:32 am 10:32 Cloudy with Light Rain 61 16 57 14 88 88 SW 3 6 29.44 997 10 16.0934 0 0.0254
10:56 am 10:56 Cloudy with Light Rain 60 15.6 57 13.9 90 90 SSW 6 9 29.44 997 8 12.87472 0 0.0254
11:30 am 11:30 Cloudy with Light Rain 61 16 57 14 88 88 VRB 3 6 29.44 997 10 16.0934 0 0.0254
11:56 am 11:56 Cloudy with Light Rain 61 16.1 57 13.9 87 87 SSW 3 6 29.45 997 10 16.0934 0 0.0254
12:03 pm 12:03 Cloudy with Light Rain 61 16 57 14 88 88 Calm 29.44 997 10 16.0934 0 0.0254
12:13 pm 12:13 Cloudy with Light Rain 61 16 55 13 83 83 Calm 29.44 997 10 16.0934 0 0.0254
12:37 pm 12:37 Cloudy 63 17 57 14 83 83 SSW 3 6 29.47 998 10 16.0934 0 0.0254
12:56 pm 12:56 Cloudy 64 17.8 58 14.4 81 81 VRB 5 7 29.45 997 10 16.0934 0 0.0254
1:56 pm 13:56 Cloudy with Light Rain 66 18.9 58 14.4 75 75 WSW 5 7 29.46 998 10 16.0934 0 0.0254
2:13 pm 14:13 Mostly Cloudy with Nearby Thunderstorms 66 19 57 14 73 73 WSW 3 6 29.47 998 10 16.0934 0 0.0254
2:28 pm 14:28 Mostly Cloudy 66 19 57 14 73 73 WNW 5 7 29.47 998 10 16.0934 0 0.0254
2:56 pm 14:56 Cloudy with Light Rain 66 18.9 58 14.4 75 75 NNE 3 6 29.47 998 10 16.0934 0 0.0254
3:15 pm 15:15 Cloudy with Nearby Thunderstorms 64 18 59 15 83 83 E 5 7 29.47 998 10 16.0934 0 0.0254
3:30 pm 15:30 Cloudy with Nearby Thunderstorms 64 18 59 15 83 83 NE 6 9 29.47 998 8 12.87472 0.01 0.254
3:56 pm 15:56 Cloudy with Light Thunderstorms 63 17.2 57 13.9 81 81 NNW 8 13 29.49 999 10 16.0934 0.17 4.318
4:25 pm 16:25 Cloudy with Light Rain 64 18 61 16 88 88 NNW 7 11 29.5 999 10 16.0934 0 0.0254
4:53 pm 16:53 Cloudy with Nearby Thunderstorms 66 19 63 17 88 88 WNW 14 22 29.5 999 10 16.0934 0.01 0.254
4:56 pm 16:56 Cloudy with Nearby Thunderstorms 67 19.4 62 16.7 84 84 WNW 17 28 29.49 999 10 16.0934 0.01 0.254
5:14 pm 17:14 Cloudy with Rain 66 19 61 16 83 83 WNW 18 30 29.5 999 8 12.87472 0.01 0.254
5:56 pm 17:56 Cloudy 65 18.3 59 15 81 81 WNW 21 33 29.53 1000 10 16.0934 0.09 2.286
6:56 pm 18:56 Cloudy 63 17.2 58 14.4 84 84 WNW 18 30 29.57 1001 10 16.0934 0 0
7:21 pm 19:21 Cloudy with Light Rain 61 16 57 14 88 88 WNW 14 22 29.56 1001 9 14.48406 0 0.0254
7:56 pm 19:56 Cloudy with Light Rain 61 16.1 58 14.4 90 90 W 14 22 29.61 1003 6 9.65604 0 0.0254
8:20 pm 20:20 Cloudy with Light Rain 61 16 57 14 88 88 W 16 26 29.59 1002 4 6.43736 0 0.0254
8:56 pm 20:56 Cloudy 59 15 57 13.9 93 93 W 14 22 29.64 1004 7 11.26538 0 0.0254
9:07 pm 21:07 Cloudy 61 16 57 14 88 88 W 15 24 29.62 1003 10 16.0934 0 0
9:56 pm 21:56 Cloudy 60 15.6 56 13.3 86 86 W 16 26 29.67 1005 10 16.0934 0 0
10:56 pm 22:56 Cloudy 59 15 56 13.3 90 90 W 15 24 29.71 1006 10 16.0934 0 0
11:22 pm 23:22 Cloudy 59 15 55 13 88 88 W 13 20 29.68 1005 10 16.0934 0 0
11:56 pm 23:56 Cloudy 60 15.6 55 12.8 84 84 W 16 26 29.72 1007 10 16.0934 0 0

Powered by AerisWeather